Content
SEND FEEDBACK

Daily
Averages
Monthly
Summary
United States of America

WILMINGTON, NORTH CAROLINA


Home > North America > United States > North Carolina
Elevation: 21 meters     Latitude: 34 16N     Longitude: 077 54W

WEATHER
 
SELECT A DAY
Number of Records: 208,628;   Date Range: 1/1/95 - 7/20/14
 
SHARE

PRINT THIS DATA

[ ← Previous Day ]
WEATHER ALMANAC - 25 FEBRUARY, 2013
[ Next Day → ]
[ °F ]   °C
Weather ElementAverageHighLow
Temperature6 °C7.8 °C (1:53 pm)3.9 °C (6:53 am)
Dewpoint0.6 °C3.9 °C (1:53 am)-1.7 °C (11:53 am)
Humidity69.6 %93 % (1:53 am)54 % (1:53 pm)
Barometer1019.6 hPa1022 hPa (10:53 am)1016.3 hPa (1:53 am)
Wind Speed17.4 km/h31.5 km/h (6:53 am)
Wind Gust37 km/h (6:51 am)
Weather ElementAverage
Visibility15.6 km
Wind DirectionNNE (33.7 °)

Weather ElementTotal
Precipitation---
Heating Degree Days12.5 (Base 18.3)
Averaged from 27 records on 25 February, 2013
WEATHER CONDITIONS BREAKOUT
WIND DIRECTION BREAKOUT
WEATHER BY HOUR - 25 FEBRUARY, 2013
[ °F ]   °C
Local TimeTemperatureDewpointHumidityBarometerVisibilityWind DirectionWind SpeedGust SpeedPrecipitationEventsConditions
1:53 AM5 °C3.9 °C93 %1016.3 hPa9.7 kmCalmClear
2:53 AM5.6 °C2.8 °C82 %1016.6 hPa16.1 kmCalmClear
3:53 AM6.1 °C1.7 °C74 %1016.3 hPa16.1 kmNNE (30°)24.1 km/hClear
4:51 AM5 °C3 °C87 %1018.3 hPa16.1 kmNNE (30°)22.2 km/hScattered Clouds
4:53 AM5 °C2.8 °C86 %1018.3 hPa16.1 kmNNE (30°)24.1 km/hScattered Clouds
5:00 AM5 °C3 °C87 %1018.3 hPa16.1 kmNNE (30°)24.1 km/hMostly Cloudy
5:53 AM5.6 °C3.3 °C85 %1018.6 hPa11.3 kmNNE (30°)24.1 km/hOvercast
6:12 AM5 °C3 °C87 %1019.3 hPa12.9 kmNNE (30°)22.2 km/hOvercast
6:51 AM4 °C0 °C75 %1019.3 hPa16.1 kmNNE (30°)25.9 km/h37 km/hScattered Clouds
6:53 AM3.9 °C0 °C76 %1019.3 hPa16.1 kmNNE (30°)31.5 km/hPartly Cloudy
7:53 AM3.9 °C-1.1 °C70 %1020.7 hPa16.1 kmNNE (30°)14.8 km/hClear
8:53 AM4.4 °C-1.1 °C68 %1021 hPa16.1 kmNE (50°)18.5 km/hClear
9:53 AM5.6 °C-1.1 °C62 %1021.7 hPa16.1 kmNNE (20°)16.7 km/hClear
10:53 AM6.1 °C-1.1 °C60 %1022 hPa16.1 kmNNE (20°)16.7 km/hClear
11:53 AM6.7 °C-1.7 °C55 %1021.7 hPa16.1 kmNNE (20°)14.8 km/hClear
12:53 PM7.2 °C-1.1 °C56 %1020.7 hPa16.1 kmNNE (30°)18.5 km/hClear
1:53 PM7.8 °C-1.1 °C54 %1020 hPa16.1 kmNE (40°)20.4 km/hClear
2:53 PM7.8 °C-1.1 °C54 %1020 hPa16.1 kmNorth (10°)14.8 km/hClear
3:53 PM7.8 °C-1.1 °C54 %1020.3 hPa16.1 kmNNE (20°)11.1 km/hClear
4:53 PM7.8 °C-0.6 °C56 %1019.6 hPa16.1 kmNE (50°)13 km/hClear
5:53 PM7.2 °C0 °C60 %1020 hPa16.1 kmENE (60°)11.1 km/hMostly Cloudy
6:53 PM6.7 °C0.6 °C65 %1020.3 hPa16.1 kmNE (40°)14.8 km/h0 mmMostly Cloudy
7:53 PM6.7 °C0 °C63 %1020.3 hPa16.1 kmNE (50°)18.5 km/hOvercast
8:53 PM6.7 °C0.6 °C65 %1020.3 hPa16.1 kmEast (80°)16.7 km/hOvercast
9:53 PM6.7 °C0.6 °C65 %1020 hPa16.1 kmNE (50°)16.7 km/hOvercast
10:53 PM6.7 °C1.7 °C71 %1019 hPa16.1 kmNE (50°)16.7 km/hOvercast
11:53 PM6.1 °C0.6 °C68 %1017.9 hPa16.1 kmNE (50°)18.5 km/hOvercast
Hourly data recorded from KILM, located 0 kilometers away from Wilmington, North Carolina







STORIES FROM OUR PARTNERS